Weather History for 16749 - September, 2013

Change the Weather History Date:

Wednesday, September 11, 2013

  Actual Average Record
Temperature  
Mean Temperature 82 °F -  
Max Temperature 89 °F 80 °F - ()
Min Temperature 76 °F 66 °F - ()
Cooling Degree Days 18    
Growing Degree Days 32 (Base 50)    
Moisture  
Dew Point 63 °F    
Average Humidity 52    
Maximum Humidity 65    
Minimum Humidity 30    
Precipitation  
Precipitation 0.00 in 0.04 in - ()
Sea Level Pressure  
Sea Level Pressure 29.89 in    
Wind  
Wind Speed 10 mph ()    
Max Wind Speed 17 mph    
Max Gust Speed -    
Visibility 6.0 miles    
Events      
T = Trace of Precipitation, MM = Missing Value Source: Averaged Metar Reports

Daily Weather History Graph

Daily Weather History Graph

Search for Another Location

Airport or City:

Trip Planner

Search our weather history database for the weather conditions in past years. The results will help you decide how hot, cold, wet, or windy it might be!

Date:

Astronomy

Sep. 11, 2013 Rise Set
Actual Time 6:46 AM EEST 7:21 PM EEST
Civil Twilight 6:20 AM EEST 7:47 PM EEST
Nautical Twilight 5:50 AM EEST 8:17 PM EEST
Astronomical Twilight 5:19 AM EEST 8:48 PM EEST
Moon 12:44 PM EEST (9/11) 11:09 PM EEST (9/11)
Length of Visible Light 13h 26m
Length of Day
12h 34m
Waxing Crescent, 35% of the Moon is Illuminated
Sep 11
Waxing Crescent
Sep 12
First Quarter
Sep 19
Full
Sep 27
Last Quarter
Oct 5
New

Hourly Weather History & Observations

Time (EEST) Temp. Heat Index Dew Point Humidity Pressure Visibility Wind Dir Wind Speed Gust Speed Precip Events Conditions
12:50 AM 77.0 °F - 60.8 °F 57% 29.95 in - SW 11.5 mph - N/A   Clear
1:20 AM 77.0 °F - 60.8 °F 57% 29.95 in - SW 11.5 mph - N/A   Clear
1:50 AM 77.0 °F - 60.8 °F 57% 29.95 in - SW 11.5 mph - N/A   Clear
2:20 AM 77.0 °F - 60.8 °F 57% 29.95 in - SW 11.5 mph - N/A   Clear
2:50 AM 77.0 °F - 64.4 °F 65% 29.92 in - WSW 9.2 mph - N/A   Clear
3:00 AM 76 °F - 64 °F 59% 29.93 in 6 mi WSW 9.2 mph - -  
3:20 AM 77.0 °F - 64.4 °F 65% 29.92 in - WSW 8.1 mph - N/A   Clear
3:50 AM 77.0 °F - 64.4 °F 65% 29.89 in - SW 9.2 mph - N/A   Clear
4:20 AM 77.0 °F - 64.4 °F 65% 29.89 in - SW 9.2 mph - N/A   Clear
4:50 AM 77.0 °F - 62.6 °F 61% 29.89 in - WNW 12.7 mph - N/A   Clear
5:20 AM 77.0 °F - 62.6 °F 61% 29.89 in - WNW 12.7 mph - N/A   Clear
5:50 AM 78.8 °F - 60.8 °F 54% 29.89 in - WNW 12.7 mph - N/A   Clear
6:20 AM 78.8 °F - 60.8 °F 54% 29.89 in - WNW 12.7 mph - N/A   Clear
6:50 AM 77.0 °F - 62.6 °F 61% 29.89 in - WSW 6.9 mph - N/A   Clear
7:20 AM 78.8 °F - 62.6 °F 57% 29.89 in - West 8.1 mph - N/A   Clear
7:50 AM 78.8 °F - 64.4 °F 61% 29.89 in - West 11.5 mph - N/A   Clear
8:20 AM 78.8 °F - 64.4 °F 61% 29.89 in - West 11.5 mph - N/A   Clear
8:50 AM 80.6 °F 81.5 °F 60.8 °F 51% 29.89 in - West 11.5 mph - N/A   Clear
9:00 AM 81 °F - 60 °F 39% 29.89 in 6 mi West 11.5 mph - -  
9:20 AM 80.6 °F 81.5 °F 60.8 °F 51% 29.89 in - West 11.5 mph - N/A   Clear
9:50 AM 82.4 °F 83.4 °F 62.6 °F 51% 29.92 in - West 9.2 mph - N/A   Clear
10:20 AM 82.4 °F 83.4 °F 62.6 °F 51% 29.92 in - West 9.2 mph - N/A   Clear
10:50 AM 84.2 °F 84.4 °F 60.8 °F 45% 29.92 in - WNW 9.2 mph - N/A   Clear
11:20 AM 84.2 °F 84.4 °F 60.8 °F 45% 29.92 in - WNW 9.2 mph - N/A   Clear
11:50 AM 84.2 °F 85.6 °F 64.4 °F 51% 29.89 in - West 10.4 mph - N/A   Clear
12:20 PM 84.2 °F 85.6 °F 64.4 °F 51% 29.89 in - West 10.4 mph - N/A   Clear
12:50 PM 86.0 °F 86.6 °F 62.6 °F 45% 29.89 in - WSW 10.4 mph - N/A   Clear
1:20 PM 86.0 °F 86.6 °F 62.6 °F 45% 29.89 in - WSW 10.4 mph - N/A   Clear
1:50 PM 87.8 °F 88.5 °F 62.6 °F 43% 29.89 in - WSW 11.5 mph - N/A   Clear
2:20 PM 86.0 °F 86.6 °F 62.6 °F 45% 29.89 in - WSW 11.5 mph - N/A   Clear
2:50 PM 89.6 °F 90.1 °F 62.6 °F 40% 29.86 in - WSW 12.7 mph - N/A   Clear
3:00 PM 90 °F - 63 °F 30% 29.88 in 6 mi WSW 12.7 mph - -  
3:20 PM 89.6 °F 90.1 °F 62.6 °F 40% 29.86 in - WSW 11.5 mph - N/A   Clear
3:50 PM 89.6 °F 90.1 °F 62.6 °F 40% 29.86 in - WSW 17.3 mph - N/A   Clear
4:20 PM 87.8 °F 88.5 °F 62.6 °F 43% 29.86 in - WSW 16.1 mph - N/A   Clear
4:50 PM 87.8 °F 88.5 °F 62.6 °F 43% 29.86 in - WSW 16.1 mph - N/A   Clear
5:20 PM 87.8 °F 88.5 °F 62.6 °F 43% 29.86 in - WSW 16.1 mph - N/A   Clear
5:50 PM 86.0 °F 88.2 °F 66.2 °F 51% 29.86 in - WSW 17.3 mph - N/A   Clear
6:20 PM 86.0 °F 88.2 °F 66.2 °F 51% 29.86 in - WSW 15.0 mph - N/A   Clear
6:50 PM 86.0 °F 88.2 °F 66.2 °F 51% 29.86 in - WSW 13.8 mph - N/A   Clear
7:20 PM 84.2 °F 86.6 °F 66.2 °F 55% 29.86 in - SW 11.5 mph - N/A   Clear
7:50 PM 82.4 °F 83.9 °F 64.4 °F 54% 29.86 in - WSW 10.4 mph - N/A   Clear
8:20 PM 82.4 °F 83.9 °F 64.4 °F 54% 29.86 in - WSW 8.1 mph - N/A   Clear
8:50 PM 82.4 °F 84.6 °F 66.2 °F 58% 29.89 in - WSW 8.1 mph - N/A   Clear
9:00 PM 82 °F - 65 °F 48% 29.89 in 6 mi WSW 8.1 mph - -  
9:20 PM 82.4 °F 84.6 °F 66.2 °F 58% 29.89 in - SW 8.1 mph - N/A   Clear
9:50 PM 80.6 °F 81.8 °F 62.6 °F 54% 29.89 in - West 9.2 mph - N/A   Clear
10:20 PM 80.6 °F 81.8 °F 62.6 °F 54% 29.89 in - West 9.2 mph - N/A   Clear
10:50 PM 82.4 °F 83.4 °F 62.6 °F 51% 29.89 in - WSW 8.1 mph - N/A   Clear
11:20 PM 82.4 °F 83.4 °F 62.6 °F 51% 29.89 in - WSW 8.1 mph - N/A   Clear
11:50 PM 78.8 °F - 60.8 °F 54% 29.89 in - WSW 6.9 mph - N/A   Clear